Time,TemperatureF,DewpointF,PressureIn,WindDirection,WindDirectionDegrees,WindSpeedMPH,WindSpeedGustMPH,Humidity,HourlyPrecipIn,Conditions,Clouds,dailyrainin,SoftwareType,DateUTC
2013-03-02 00:11:00,31.8,26.0,29.77,NW,311,8.0,15.0,78,0.00,,,0.00,weatherlink.com 1.10,2013-03-02 05:11:00,
2013-03-02 00:26:00,31.8,25.0,29.77,WNW,297,7.0,15.0,77,0.00,,,0.00,weatherlink.com 1.10,2013-03-02 05:26:00,
2013-03-02 00:41:00,31.7,25.0,29.77,NW,316,8.0,18.0,77,0.00,,,0.00,weatherlink.com 1.10,2013-03-02 05:41:00,
2013-03-02 00:56:00,31.6,25.0,29.77,NNW,334,8.0,14.0,77,0.00,,,0.00,weatherlink.com 1.10,2013-03-02 05:56:00,
2013-03-02 01:11:00,31.4,25.0,29.77,NNW,332,6.0,18.0,78,0.00,,,0.00,weatherlink.com 1.10,2013-03-02 06:11:00,
2013-03-02 01:26:00,31.2,25.0,29.77,NW,311,6.0,12.0,78,0.00,,,0.00,weatherlink.com 1.10,2013-03-02 06:26:00,
2013-03-02 01:41:00,30.9,25.0,29.77,NNE,12,5.0,14.0,78,0.00,,,0.00,weatherlink.com 1.10,2013-03-02 06:41:00,
2013-03-02 01:56:00,30.8,25.0,29.77,NNW,335,5.0,14.0,79,0.00,,,0.00,weatherlink.com 1.10,2013-03-02 06:56:00,
2013-03-02 02:11:00,30.7,25.0,29.77,NNW,333,8.0,15.0,79,0.00,,,0.00,weatherlink.com 1.10,2013-03-02 07:11:00,
2013-03-02 02:26:00,30.7,25.0,29.77,NW,326,4.0,14.0,79,0.00,,,0.00,weatherlink.com 1.10,2013-03-02 07:26:00,
2013-03-02 02:41:00,30.6,25.0,29.77,NW,309,7.0,12.0,79,0.00,,,0.00,weatherlink.com 1.10,2013-03-02 07:41:00,
2013-03-02 02:56:00,30.6,25.0,29.77,NW,307,10.0,15.0,79,0.00,,,0.00,weatherlink.com 1.10,2013-03-02 07:56:00,
2013-03-02 03:11:00,30.4,25.0,29.77,NW,304,6.0,15.0,79,0.00,,,0.00,weatherlink.com 1.10,2013-03-02 08:11:00,
2013-03-02 03:26:00,30.2,25.0,29.76,NW,315,6.0,16.0,80,0.00,,,0.00,weatherlink.com 1.10,2013-03-02 08:26:00,
2013-03-02 03:41:00,29.9,24.0,29.76,NW,326,6.0,11.0,80,0.00,,,0.00,weatherlink.com 1.10,2013-03-02 08:41:00,
2013-03-02 03:56:00,29.6,24.0,29.76,NNW,347,6.0,12.0,81,0.00,,,0.00,weatherlink.com 1.10,2013-03-02 08:56:00,
2013-03-02 04:11:00,29.5,24.0,29.76,NW,315,4.0,12.0,81,0.00,,,0.00,weatherlink.com 1.10,2013-03-02 09:11:00,
2013-03-02 04:26:00,29.5,24.0,29.76,NW,309,6.0,13.0,81,0.00,,,0.00,weatherlink.com 1.10,2013-03-02 09:26:00,
2013-03-02 04:41:00,29.6,24.0,29.76,WNW,295,5.0,13.0,80,0.00,,,0.00,weatherlink.com 1.10,2013-03-02 09:41:00,
2013-03-02 04:56:00,29.6,24.0,29.76,NNW,347,6.0,16.0,80,0.00,,,0.00,weatherlink.com 1.10,2013-03-02 09:56:00,
2013-03-02 05:11:00,29.6,24.0,29.76,NW,316,4.0,12.0,80,0.00,,,0.00,weatherlink.com 1.10,2013-03-02 10:11:00,
2013-03-02 05:26:00,29.5,24.0,29.76,NNW,330,9.0,14.0,79,0.00,,,0.00,weatherlink.com 1.10,2013-03-02 10:26:00,
2013-03-02 05:42:00,29.4,24.0,29.76,NNW,348,7.0,14.0,80,0.00,,,0.00,weatherlink.com 1.10,2013-03-02 10:42:00,
2013-03-02 05:56:00,29.4,24.0,29.76,NNW,328,9.0,15.0,79,0.00,,,0.00,weatherlink.com 1.10,2013-03-02 10:56:00,
2013-03-02 06:12:00,29.3,23.0,29.77,NW,318,4.0,17.0,78,0.00,,,0.00,weatherlink.com 1.10,2013-03-02 11:12:00,
2013-03-02 06:27:00,29.0,23.0,29.77,NW,304,7.0,16.0,78,0.00,,,0.00,weatherlink.com 1.10,2013-03-02 11:27:00,
2013-03-02 06:42:00,28.9,23.0,29.77,NNW,328,9.0,16.0,78,0.00,,,0.00,weatherlink.com 1.10,2013-03-02 11:42:00,
2013-03-02 06:57:00,28.9,23.0,29.77,West,269,4.0,15.0,78,0.00,,,0.00,weatherlink.com 1.10,2013-03-02 11:57:00,
2013-03-02 07:12:00,29.0,23.0,29.77,NW,309,4.0,15.0,77,0.00,,,0.00,weatherlink.com 1.10,2013-03-02 12:12:00,
2013-03-02 07:27:00,29.1,23.0,29.77,WNW,284,6.0,13.0,77,0.00,,,0.00,weatherlink.com 1.10,2013-03-02 12:27:00,
2013-03-02 07:42:00,29.1,23.0,29.78,NNW,335,5.0,15.0,77,0.00,,,0.00,weatherlink.com 1.10,2013-03-02 12:42:00,
2013-03-02 07:57:00,29.2,23.0,29.78,NW,311,9.0,16.0,78,0.00,,,0.00,weatherlink.com 1.10,2013-03-02 12:57:00,
2013-03-02 08:12:00,29.2,23.0,29.78,NW,309,8.0,20.0,78,0.00,,,0.00,weatherlink.com 1.10,2013-03-02 13:12:00,
2013-03-02 08:27:00,29.6,24.0,29.78,NW,311,3.0,14.0,78,0.00,,,0.00,weatherlink.com 1.10,2013-03-02 13:27:00,
2013-03-02 08:42:00,29.8,24.0,29.77,NW,304,10.0,14.0,78,0.00,,,0.00,weatherlink.com 1.10,2013-03-02 13:42:00,
2013-03-02 08:57:00,30.2,24.0,29.78,NW,325,6.0,12.0,78,0.00,,,0.00,weatherlink.com 1.10,2013-03-02 13:57:00,
2013-03-02 09:12:00,30.3,24.0,29.78,NNE,16,8.0,15.0,78,0.00,,,0.00,weatherlink.com 1.10,2013-03-02 14:12:00,
2013-03-02 09:27:00,30.7,24.0,29.78,NNW,333,4.0,11.0,77,0.00,,,0.00,weatherlink.com 1.10,2013-03-02 14:27:00,
2013-03-02 09:42:00,31.3,25.0,29.78,NW,304,10.0,12.0,76,0.00,,,0.00,weatherlink.com 1.10,2013-03-02 14:42:00,
2013-03-02 09:57:00,31.4,24.0,29.78,NNW,340,8.0,14.0,75,0.00,,,0.00,weatherlink.com 1.10,2013-03-02 14:57:00,
2013-03-02 10:12:00,31.6,24.0,29.78,NW,321,9.0,14.0,74,0.00,,,0.00,weatherlink.com 1.10,2013-03-02 15:12:00,
2013-03-02 10:27:00,31.7,25.0,29.77,NW,304,6.0,18.0,75,0.00,,,0.00,weatherlink.com 1.10,2013-03-02 15:27:00,
2013-03-02 10:42:00,32.0,24.0,29.77,NNW,344,4.0,16.0,73,0.00,,,0.00,weatherlink.com 1.10,2013-03-02 15:42:00,
2013-03-02 10:57:00,32.5,24.0,29.77,NNW,339,6.0,14.0,72,0.00,,,0.00,weatherlink.com 1.10,2013-03-02 15:57:00,
2013-03-02 11:12:00,32.5,25.0,29.77,NW,307,5.0,12.0,73,0.00,,,0.00,weatherlink.com 1.10,2013-03-02 16:12:00,
2013-03-02 11:27:00,32.5,24.0,29.77,NW,304,8.0,17.0,72,0.00,,,0.00,weatherlink.com 1.10,2013-03-02 16:27:00,
2013-03-02 11:42:00,32.7,25.0,29.77,NW,321,5.0,15.0,72,0.00,,,0.00,weatherlink.com 1.10,2013-03-02 16:42:00,
2013-03-02 11:57:00,33.1,25.0,29.76,NW,305,4.0,15.0,71,0.00,,,0.00,weatherlink.com 1.10,2013-03-02 16:57:00,
2013-03-02 12:12:00,33.2,25.0,29.76,NNW,339,9.0,15.0,71,0.00,,,0.00,weatherlink.com 1.10,2013-03-02 17:12:00,
2013-03-02 12:27:00,33.5,25.0,29.75,WNW,293,7.0,15.0,70,0.00,,,0.00,weatherlink.com 1.10,2013-03-02 17:27:00,
2013-03-02 12:42:00,34.2,25.0,29.74,NNW,343,9.0,16.0,70,0.00,,,0.00,weatherlink.com 1.10,2013-03-02 17:42:00,
2013-03-02 12:57:00,33.8,25.0,29.74,NW,311,9.0,15.0,69,0.00,,,0.00,weatherlink.com 1.10,2013-03-02 17:57:00,
2013-03-02 13:12:00,33.9,25.0,29.73,NW,316,5.0,15.0,69,0.00,,,0.00,weatherlink.com 1.10,2013-03-02 18:12:00,
2013-03-02 13:27:00,33.8,24.0,29.73,NW,322,5.0,16.0,68,0.00,,,0.00,weatherlink.com 1.10,2013-03-02 18:27:00,
2013-03-02 13:42:00,33.6,24.0,29.73,NNW,343,10.0,14.0,69,0.00,,,0.00,weatherlink.com 1.10,2013-03-02 18:42:00,
2013-03-02 13:57:00,33.7,25.0,29.73,NNW,329,9.0,13.0,69,0.00,,,0.00,weatherlink.com 1.10,2013-03-02 18:57:00,
2013-03-02 14:12:00,34.4,25.0,29.73,NNW,336,7.0,11.0,68,0.00,,,0.00,weatherlink.com 1.10,2013-03-02 19:12:00,
2013-03-02 14:27:00,34.1,24.0,29.72,NW,312,10.0,16.0,67,0.00,,,0.00,weatherlink.com 1.10,2013-03-02 19:27:00,
2013-03-02 14:42:00,34.0,24.0,29.72,NW,304,4.0,15.0,68,0.00,,,0.00,weatherlink.com 1.10,2013-03-02 19:42:00,
2013-03-02 14:57:00,34.0,24.0,29.73,NW,326,4.0,10.0,68,0.00,,,0.00,weatherlink.com 1.10,2013-03-02 19:57:00,
2013-03-02 15:12:00,33.5,25.0,29.72,NW,326,4.0,16.0,70,0.00,,,0.00,weatherlink.com 1.10,2013-03-02 20:12:00,
2013-03-02 15:27:00,33.3,24.0,29.72,WNW,297,8.0,13.0,70,0.00,,,0.00,weatherlink.com 1.10,2013-03-02 20:27:00,
2013-03-02 15:42:00,32.6,24.0,29.72,NW,311,3.0,18.0,70,0.00,,,0.00,weatherlink.com 1.10,2013-03-02 20:42:00,
2013-03-02 15:57:00,32.3,24.0,29.72,NW,307,11.0,16.0,72,0.00,,,0.00,weatherlink.com 1.10,2013-03-02 20:57:00,
2013-03-02 16:12:00,31.5,24.0,29.73,NNW,333,14.0,16.0,73,0.00,,,0.00,weatherlink.com 1.10,2013-03-02 21:12:00,
2013-03-02 16:27:00,31.2,23.0,29.73,North,350,13.0,17.0,73,0.00,,,0.00,weatherlink.com 1.10,2013-03-02 21:27:00,
2013-03-02 16:42:00,30.8,24.0,29.73,NNW,343,7.0,16.0,75,0.00,,,0.00,weatherlink.com 1.10,2013-03-02 21:42:00,
2013-03-02 16:58:00,30.6,24.0,29.73,NW,321,6.0,16.0,75,0.00,,,0.00,weatherlink.com 1.10,2013-03-02 21:58:00,
2013-03-02 17:13:00,30.3,23.0,29.74,NNW,342,10.0,16.0,75,0.00,,,0.00,weatherlink.com 1.10,2013-03-02 22:13:00,
2013-03-02 17:28:00,29.9,23.0,29.74,NW,325,5.0,13.0,76,0.00,,,0.00,weatherlink.com 1.10,2013-03-02 22:28:00,
2013-03-02 17:43:00,29.6,23.0,29.75,NW,325,7.0,14.0,75,0.00,,,0.00,weatherlink.com 1.10,2013-03-02 22:43:00,
2013-03-02 17:58:00,29.2,23.0,29.75,WNW,298,5.0,15.0,77,0.00,,,0.00,weatherlink.com 1.10,2013-03-02 22:58:00,
2013-03-02 18:13:00,28.8,22.0,29.76,WNW,297,7.0,14.0,76,0.00,,,0.00,weatherlink.com 1.10,2013-03-02 23:13:00,
2013-03-02 18:28:00,28.6,22.0,29.76,NW,309,8.0,14.0,76,0.00,,,0.00,weatherlink.com 1.10,2013-03-02 23:28:00,
2013-03-02 18:43:00,28.3,22.0,29.76,NNW,337,8.0,12.0,76,0.00,,,0.00,weatherlink.com 1.10,2013-03-02 23:43:00,
2013-03-02 18:58:00,28.2,22.0,29.77,NW,314,8.0,13.0,76,0.00,,,0.00,weatherlink.com 1.10,2013-03-02 23:58:00,
2013-03-02 19:13:00,27.8,21.0,29.77,NW,323,12.0,16.0,77,0.00,,,0.00,weatherlink.com 1.10,2013-03-03 00:13:00,
2013-03-02 19:28:00,27.6,21.0,29.77,NNW,328,7.0,12.0,77,0.00,,,0.00,weatherlink.com 1.10,2013-03-03 00:28:00,
2013-03-02 19:43:00,27.4,21.0,29.77,NW,311,6.0,13.0,78,0.00,,,0.00,weatherlink.com 1.10,2013-03-03 00:43:00,
2013-03-02 19:58:00,27.0,21.0,29.77,NW,322,7.0,14.0,79,0.00,,,0.00,weatherlink.com 1.10,2013-03-03 00:58:00,
2013-03-02 20:13:00,26.9,22.0,29.77,NW,319,5.0,15.0,80,0.00,,,0.00,weatherlink.com 1.10,2013-03-03 01:13:00,
2013-03-02 20:28:00,26.7,21.0,29.78,NNW,338,4.0,15.0,79,0.00,,,0.00,weatherlink.com 1.10,2013-03-03 01:28:00,
2013-03-02 20:43:00,26.6,21.0,29.78,NW,311,6.0,13.0,80,0.00,,,0.00,weatherlink.com 1.10,2013-03-03 01:43:00,
2013-03-02 20:58:00,26.6,21.0,29.78,NW,314,7.0,13.0,80,0.00,,,0.00,weatherlink.com 1.10,2013-03-03 01:58:00,
2013-03-02 21:13:00,26.6,21.0,29.78,NW,325,6.0,13.0,80,0.00,,,0.00,weatherlink.com 1.10,2013-03-03 02:13:00,
2013-03-02 21:28:00,26.4,21.0,29.78,NNW,332,15.0,15.0,80,0.00,,,0.00,weatherlink.com 1.10,2013-03-03 02:28:00,
2013-03-02 21:43:00,26.3,21.0,29.78,NW,326,8.0,13.0,80,0.00,,,0.00,weatherlink.com 1.10,2013-03-03 02:43:00,
2013-03-02 21:58:00,26.2,21.0,29.78,WNW,302,6.0,12.0,80,0.00,,,0.00,weatherlink.com 1.10,2013-03-03 02:58:00,
2013-03-02 22:13:00,26.1,21.0,29.77,NNW,333,3.0,9.0,81,0.00,,,0.00,weatherlink.com 1.10,2013-03-03 03:13:00,
2013-03-02 22:28:00,25.9,21.0,29.77,NNW,333,4.0,12.0,81,0.00,,,0.00,weatherlink.com 1.10,2013-03-03 03:28:00,
2013-03-02 22:43:00,25.9,21.0,29.77,NW,305,9.0,11.0,80,0.00,,,0.00,weatherlink.com 1.10,2013-03-03 03:43:00,
2013-03-02 22:58:00,25.9,21.0,29.77,NW,316,9.0,11.0,81,0.00,,,0.00,weatherlink.com 1.10,2013-03-03 03:58:00,
2013-03-02 23:13:00,25.8,20.0,29.76,NNW,335,7.0,14.0,80,0.00,,,0.00,weatherlink.com 1.10,2013-03-03 04:13:00,
2013-03-02 23:28:00,25.7,20.0,29.76,NW,304,7.0,13.0,80,0.00,,,0.00,weatherlink.com 1.10,2013-03-03 04:28:00,
2013-03-02 23:43:00,25.5,20.0,29.76,NW,311,5.0,11.0,80,0.00,,,0.00,weatherlink.com 1.10,2013-03-03 04:43:00,
2013-03-02 23:58:00,25.4,20.0,29.76,NW,326,3.0,13.0,79,0.00,,,0.00,weatherlink.com 1.10,2013-03-03 04:58:00,